Location: Casone le Fosse
(44.6547°N, 12.1103°E)
Time: 12:16:20
(UTC+00:00)

FALCON 9 DEB - Pass Details

Date: 29 October 2020
Orbit: 378 x 394 km, 53.0° (Epoch: 27 November)

Event Time Altitude Azimuth Distance (km) Brightness Sun altitude
Rises 16:22:09 0° 243° (WSW) 2,298 9.0 -3.9°
Reaches altitude 10° 16:24:14 10° 247° (WSW) 1,440 7.7 -4.2°
Maximum altitude 16:27:26 63° 330° (NNW) 448 3.3 -4.8°
Drops below altitude 10° 16:30:38 10° 52° (NE) 1,436 5.2 -5.3°
Enters shadow 16:31:28 - 54° (NE) 1,780 5.6 -5.5°
